| time (UTC) | temp F | wind direction | speed MPH | gust MPH | rain 1hr in | rain 24hr in | rain mn in | humidity % | barometer mb |
| 20260503190548 | 63 | 0 | 2.0 | 3.0 | 0.00 | 0.00 | 0.00 | 44 | 1018.1 |
| 20260503185545 | 63 | 270 | 1.0 | 2.0 | 0.00 | 0.00 | 0.00 | 44 | 1018.2 |
| 20260503184541 | 62 | 279 | 2.0 | 4.0 | 0.00 | 0.00 | 0.00 | 44 | 1018.4 |
| 20260503183557 | 62 | 312 | 1.0 | 2.0 | 0.00 | 0.00 | 0.00 | 44 | 1018.6 |
| 20260503182534 | 60 | 270 | 3.0 | 5.0 | 0.00 | 0.00 | 0.00 | 44 | 1018.8 |
| 20260503181530 | 61 | 270 | 2.0 | 4.0 | 0.00 | 0.00 | 0.00 | 44 | 1018.8 |
| 20260503180528 | 61 | 270 | 4.0 | 5.0 | 0.00 | 0.00 | 0.00 | 44 | 1019.0 |
| 20260503175524 | 62 | 270 | 0.0 | 2.0 | 0.00 | 0.00 | 0.00 | 44 | 1019.1 |
| 20260503174540 | 61 | 270 | 2.0 | 5.0 | 0.00 | 0.00 | 0.00 | 44 | 1019.2 |
| 20260503173517 | 61 | 270 | 2.0 | 3.0 | 0.00 | 0.00 | 0.00 | 44 | 1019.3 |
| 20260503172614 | 60 | 270 | 2.0 | 3.0 | 0.00 | 0.00 | 0.00 | 44 | 1019.3 |
| 20260503171610 | 60 | 270 | 2.0 | 3.0 | 0.00 | 0.00 | 0.00 | 44 | 1019.4 |
| 20260503170607 | 59 | 270 | 3.0 | 5.0 | 0.00 | 0.00 | 0.00 | 44 | 1019.6 |
| 20260503150526 | 53 | 0 | 1.0 | 1.0 | 0.00 | 0.00 | 0.00 | 45 | 1020.7 |
| 20260503130545 | 47 | 294 | 2.0 | 4.0 | 0.00 | 0.00 | 0.00 | 44 | 1020.7 |
| 20260503110622 | 37 | 0.0 | 0.0 | 0.00 | 0.00 | 0.00 | 73 | 1019.4 | |
| 20260503081605 | 39 | 0.0 | 0.0 | 0.00 | 0.00 | 0.00 | 70 | 1017.5 | |
| 20260503080602 | 39 | 0.0 | 0.0 | 0.00 | 0.00 | 0.00 | 70 | 1017.5 | |
| 20260503072548 | 40 | 270 | 0.0 | 1.0 | 0.00 | 0.00 | 0.00 | 70 | 1017.0 |
| 20260503071544 | 40 | 0.0 | 0.0 | 0.00 | 0.00 | 0.00 | 70 | 1016.9 | |
| 20260503070541 | 40 | 0.0 | 0.0 | 0.00 | 0.00 | 0.00 | 70 | 1016.9 | |
| 20260503054614 | 42 | 0.0 | 0.0 | 0.00 | 0.00 | 0.00 | 69 | 1016.7 | |
| 20260503053611 | 42 | 0.0 | 0.0 | 0.00 | 0.00 | 0.00 | 69 | 1016.6 | |
| 20260503052607 | 42 | 0.0 | 0.0 | 0.00 | 0.00 | 0.00 | 69 | 1016.5 | |
| 20260503051604 | 42 | 0.0 | 0.0 | 0.00 | 0.00 | 0.00 | 68 | 1016.5 | |
| 20260503050600 | 43 | 0.0 | 0.0 | 0.00 | 0.00 | 0.00 | 67 | 1016.7 | |
| 20260503045557 | 44 | 0.0 | 0.0 | 0.00 | 0.00 | 0.00 | 67 | 1016.5 | |
| 20260503044553 | 43 | 0.0 | 0.0 | 0.00 | 0.00 | 0.00 | 66 | 1016.5 | |
| 20260503043550 | 44 | 0.0 | 0.0 | 0.00 | 0.00 | 0.00 | 67 | 1016.4 | |
| 20260503042547 | 44 | 0.0 | 0.0 | 0.00 | 0.00 | 0.00 | 67 | 1016.3 | |
| 20260503041543 | 44 | 90 | 0.0 | 1.0 | 0.00 | 0.00 | 0.00 | 66 | 1016.1 |
| 20260503040540 | 45 | 45 | 1.0 | 2.0 | 0.00 | 0.00 | 0.00 | 66 | 1016.1 |
| 20260503035556 | 45 | 0.0 | 0.0 | 0.00 | 0.00 | 0.00 | 60 | 1016.0 | |
| 20260503034533 | 46 | 0.0 | 0.0 | 0.00 | 0.00 | 0.00 | 53 | 1015.9 | |
| 20260503033530 | 46 | 0.0 | 0.0 | 0.00 | 0.00 | 0.00 | 55 | 1015.9 | |
| 20260503032526 | 47 | 0.0 | 0.0 | 0.00 | 0.00 | 0.00 | 56 | 1015.9 | |
| 20260503031523 | 47 | 0.0 | 0.0 | 0.00 | 0.00 | 0.00 | 56 | 1015.8 | |
| 20260503030520 | 47 | 0.0 | 0.0 | 0.00 | 0.00 | 0.00 | 56 | 1015.7 | |
| 20260503025536 | 48 | 11 | 0.0 | 1.0 | 0.00 | 0.00 | 0.00 | 54 | 1015.7 |
| 20260503024613 | 49 | 0 | 0.0 | 1.0 | 0.00 | 0.00 | 0.00 | 45 | 1015.7 |
| 20260503023630 | 49 | 0.0 | 0.0 | 0.00 | 0.00 | 0.00 | 48 | 1015.6 | |
| 20260503022646 | 50 | 0.0 | 0.0 | 0.00 | 0.00 | 0.00 | 45 | 1015.5 | |
| 20260503021603 | 51 | 0.0 | 0.0 | 0.00 | 0.00 | 0.00 | 45 | 1015.5 | |
| 20260503020559 | 53 | 0.0 | 0.0 | 0.00 | 0.00 | 0.00 | 45 | 1015.4 | |
| 20260503015556 | 53 | 0 | 0.0 | 1.0 | 0.00 | 0.00 | 0.00 | 45 | 1015.2 |
| 20260503014553 | 53 | 0 | 1.0 | 2.0 | 0.00 | 0.00 | 0.00 | 45 | 1015.2 |
| 20260503013549 | 53 | 0 | 1.0 | 2.0 | 0.00 | 0.00 | 0.00 | 45 | 1015.1 |
| 20260503012545 | 53 | 7 | 2.0 | 3.0 | 0.00 | 0.00 | 0.00 | 45 | 1015.0 |
| 20260503011543 | 54 | 0 | 1.0 | 2.0 | 0.00 | 0.00 | 0.00 | 45 | 1014.7 |
| 20260503010619 | 54 | 0 | 1.0 | 1.0 | 0.00 | 0.00 | 0.00 | 45 | 1014.6 |
| 20260503005535 | 55 | 340 | 1.0 | 3.0 | 0.00 | 0.00 | 0.00 | 40 | 1014.3 |
| 20260503004532 | 55 | 0 | 1.0 | 1.0 | 0.00 | 0.00 | 0.00 | 40 | 1014.2 |
| 20260503003529 | 56 | 353 | 1.0 | 2.0 | 0.00 | 0.00 | 0.00 | 40 | 1014.1 |
| 20260503002525 | 55 | 0.0 | 0.0 | 0.00 | 0.00 | 0.00 | 45 | 1013.9 | |
| 20260503001542 | 56 | 0.0 | 0.0 | 0.00 | 0.00 | 0.00 | 46 | 1013.7 | |
| 20260503000518 | 56 | 0.0 | 0.0 | 0.00 | 0.00 | 0.00 | 43 | 1013.5 | |
| 20260502235615 | 56 | 90 | 0.0 | 1.0 | 0.00 | 0.00 | 0.00 | 43 | 1013.4 |
| 20260502234612 | 56 | 90 | 0.0 | 2.0 | 0.00 | 0.00 | 0.00 | 45 | 1013.4 |
| 20260502233608 | 57 | 45 | 1.0 | 2.0 | 0.00 | 0.00 | 0.00 | 40 | 1013.3 |
| 20260502232605 | 57 | 0.0 | 0.0 | 0.00 | 0.00 | 0.00 | 40 | 1013.1 | |
| 20260502231601 | 57 | 0.0 | 0.0 | 0.00 | 0.00 | 0.00 | 40 | 1013.0 | |
| 20260502230557 | 58 | 0.0 | 0.0 | 0.00 | 0.00 | 0.00 | 40 | 1012.9 | |
| 20260502225555 | 58 | 0.0 | 0.0 | 0.00 | 0.00 | 0.00 | 40 | 1012.8 | |
| 20260502224551 | 59 | 0.0 | 1.0 | 0.00 | 0.00 | 0.00 | 40 | 1012.8 | |
| 20260502223547 | 59 | 0.0 | 0.0 | 0.00 | 0.00 | 0.00 | 40 | 1012.6 | |
| 20260502222544 | 59 | 0.0 | 0.0 | 0.00 | 0.00 | 0.00 | 40 | 1012.5 | |
| 20260502221541 | 60 | 0.0 | 0.0 | 0.00 | 0.00 | 0.00 | 40 | 1012.4 | |
| 20260502220537 | 60 | 0.0 | 0.0 | 0.00 | 0.00 | 0.00 | 40 | 1012.2 | |
| 20260502215534 | 60 | 0.0 | 0.0 | 0.00 | 0.00 | 0.00 | 40 | 1012.1 | |
| 20260502214532 | 60 | 90 | 0.0 | 1.0 | 0.00 | 0.00 | 0.00 | 40 | 1011.9 |
| 20260502213527 | 60 | 0.0 | 0.0 | 0.00 | 0.00 | 0.00 | 40 | 1011.8 | |
| 20260502212544 | 61 | 90 | 1.0 | 3.0 | 0.00 | 0.00 | 0.00 | 40 | 1011.8 |
| 20260502211520 | 62 | 270 | 1.0 | 2.0 | 0.00 | 0.00 | 0.00 | 40 | 1011.7 |
| 20260502210537 | 62 | 180 | 0.0 | 1.0 | 0.00 | 0.00 | 0.00 | 40 | 1011.5 |
| 20260502205614 | 61 | 135 | 0.0 | 2.0 | 0.00 | 0.00 | 0.00 | 40 | 1011.5 |
| 20260502204611 | 61 | 198 | 0.0 | 1.0 | 0.00 | 0.00 | 0.00 | 40 | 1011.6 |
| 20260502203607 | 60 | 75 | 1.0 | 2.0 | 0.00 | 0.00 | 0.00 | 40 | 1011.6 |
| 20260502202604 | 59 | 90 | 1.0 | 3.0 | 0.00 | 0.00 | 0.00 | 40 | 1011.7 |
| 20260502201620 | 60 | 90 | 1.0 | 3.0 | 0.00 | 0.00 | 0.00 | 40 | 1011.8 |
| 20260502200557 | 60 | 135 | 1.0 | 2.0 | 0.00 | 0.00 | 0.00 | 40 | 1011.9 |
| 20260502195554 | 60 | 180 | 1.0 | 2.0 | 0.00 | 0.00 | 0.00 | 40 | 1012.2 |
| 20260502194550 | 60 | 315 | 1.0 | 2.0 | 0.00 | 0.00 | 0.00 | 40 | 1012.4 |
| 20260502193547 | 58 | 90 | 2.0 | 3.0 | 0.00 | 0.00 | 0.00 | 40 | 1012.8 |
| 20260502192543 | 58 | 135 | 1.0 | 2.0 | 0.00 | 0.00 | 0.00 | 40 | 1012.9 |
| 20260502191540 | 59 | 0 | 0.0 | 2.0 | 0.00 | 0.00 | 0.00 | 40 | 1013.0 |